logo

  • home
  • head
  • itnews
  • product
  • mobile
  • game
  • benchmark
  • analysis
  • blog

드라마 / 미국 / 115분 / 2021 .03.03 개봉 / [국내] 12세 관람가 감독 : 정이삭 출연 : 스티븐 연(제이콥), 한...
액션 / 미국 / 2021 .03.25 개봉 감독 : 애덤 윈가드 출연 : 알렉산더 스카스가드(네이선 린드), 밀리 바비 브...
한의협은 포스트 코로나를 맞이해 원격의료가 이제는 필수불가결할 것이란 입장을 밝혔다. 이와 함께 한의계의 주도적인 원격의료 시범사업 추진을 제시했다. 

17일 국회의원회관 제1세미나실에서 열린 ‘포스트 코로나 대응 ; 한의약 활용방안 마련을 위한 정책포럼’에서는 원격 의료의 중요성과 함께 한의약을 이에 적용할 수 있는 방안들에 대해 논의됐다.






List of Articles
번호 제목 날짜 조회 수
공지 AMD 젠 아키텍처 분석 (프론트엔드, OP캐시, CCX, 인피니... 6 2017.07.23 43831
1559 국정원장 내정 박지원 "대통령 위해 충성할 것" 1 2020.07.03 119
1558 박지원 국정원장 '깜짝 발탁'..통일부장관에 이인영 1 2020.07.03 109
1557 양승동 KBS 사장 "수신료 올리고, 직원 1000명 줄이겠다" 1 2020.07.02 105
1556 '음주운전' 종근당 회장 아들 "부끄럽다"..징역 2년 구형 1 2020.07.02 114
1555 中격투기 부대에 인도는 킬러부대 반격..살벌한 국경난투극 1 2020.07.02 99
1554 [이래도 되나요] '80억대 아파트·람보르기니' 뽐낸 대학생... 2 2020.06.27 148
1553 '공수처 설립방향' 공청회.."수사-기소 분리해야" 1 2020.06.27 74
1552 더 커진 청년 분노, 노노갈등…무원칙이 키운 ‘인국공 파문’ 1 2020.06.27 191
1551 '황제 복무' 부대서 성추행 의혹.."뒷조사 해놨다며 협박도" 1 2020.06.25 134
1550 역대 스타리그 오프닝 TOP 10 1 2020.06.25 164
1549 스타크래프트 1인 46역 성대모사!ㅣStarcraft 46 voice Vo... 1 2020.06.25 183
1548 AMD 코리아, 국내 "쿨엔조이" 커뮤니티에서 영구퇴출 4 2020.06.23 182
1547 주식용 컴퓨터에 AMD를 쓰면 안되는 이유? 1 2020.06.22 438
1546 구글 어스에 찍힌 소름끼치는 것들 1 2020.06.21 474
1545 AMD 바이럴 마케팅 또 발각,, 네티즌 분노 4 2020.06.20 139
1544 병협 이어 노조도 "공공의대·의대 증원 필요"‥의협 입지는? 2 2020.06.19 161
» 한의협, “원격의료, 포스트 코로나서 필수불가결” 1 2020.06.19 98
1542 여의도 나이스그룹 사옥서 코로나19 확진자 발생 3 2020.06.17 82
1541 "아빠한테 말하면 안되는 것 없어"…'아들 황제복무' 최영 ... 1 2020.06.17 178
1540 '황제 대령'도?…"공군 법무실장, 180번 근무지 이탈" 폭로 2 2020.06.16 76
1539 공군감찰·청와대 청원대상 황제병사는 지금 '휴가중' 3 2020.06.16 99
1538 '황제 복무' 나이스그룹 부회장 아들, 이번엔 '황제 조사'... 1 2020.06.16 147
1537 '신용 잃은 신평사' 제재… 나이스·서울신용평가 '기관 주의' 2 2020.06.16 68
1536 '황제 복무' 논란 공군 부대, 대대장 '갑질·폭언' 의혹도 2 2020.06.14 106
1535 나이스그룹 부회장 아들, 1인 생활관 등 '황제복무' 논란 5 2020.06.13 174
1534 AMD 라이젠 CPU, 사용중 프리징 문제에 노출? 2 2020.06.13 357
1533 C&C 리마스터 정식 출시 - 새로운 전성기 1 2020.06.13 180
1532 근로자 사망했는데 한국경제 "[단독] 팰리세이드 생산 위기" 1 2020.06.13 125
1531 공군 '황제 병사'…1인실 이용 등 일부 의혹 확인 1 2020.06.13 139
1530 "검은사막에서 열애, 그라나궁전에서 결혼"…코로나19로 '... 1 2020.06.13 143
1529 남편은 집주인, 아내는 세입자..부동산판 또다른 '부부의 ... 1 2020.06.13 125
1528 미 해양대기청 "올여름 평년보다 덥다"..지구온난화가 폭... 1 2020.06.11 94
1527 '비선실세' 최서원, 징역 18년·벌금 200억원 확정 1 2020.06.11 149
1526 'V4 흥행' 넥슨, 1분기 매출 9045억…국내 매출 78%↑ 1 2020.06.11 81
1525 `모바일 카트라이더` 북미서도 질주 1 2020.06.11 165
1524 병원협회, 의료계 최초로 “비대면 진료 찬성” 3 2020.06.05 66
1523 의사 모자란데 의협은 원격의료도, 의대 정원 확대도 '무... 3 2020.06.03 133
1522 31년 만에… 의대 정원 500명 이상 늘린다 2 2020.05.30 123
1521 국민들 여론, 원격 진료/의료 대부분 "찬성" 1 2020.05.29 180
1520 채수찬 KAIST 부총장 "원격의료, 의료민영화로 의심하면 ... 1 2020.05.27 104
1519 '그알' 존경받던 가톨릭 사제의 동성 성추행, 뒤늦게 밝혀... 1 2020.05.18 138
1518 문체부 장관 만난 게임업계 대표들 "주52시간제 탄력 운영... 1 2020.05.15 139
1517 이낙연, 차기 지도자 선호도 28% 최고치 경신..황교안 1% 2 2020.05.15 162
1516 이태원 클럽발 확진자 90명 육박..3천명 연락불통 1 2020.05.11 123
1515 이태원 클럽, '제2의 신천지' 되나.. 긴장한 정부 '수도권... 1 2020.05.09 250
1514 이태원 클럽 접촉자만 1,500명..행적 추적도 어렵다 1 2020.05.08 192
1513 용인 확진자 직장 '티맥스소프트', '재택근무'도 '전수조... 4 2020.05.08 160
1512 이태원 클럽 집단감염 신천지처럼 안되려면..역학조사 속... 1 2020.05.08 72
1511 코로나19 생활 속 거리두기 기본지침 개인방역 1 2020.05.06 112
1510 배틀그라운드 운영정책 개정 안내 2020.05.06 147
1509 [로스트아크] 5월 6일(수) 업데이트 내역 안내 1 2020.05.06 140
1508 Xbox 시리즈 X 저가형 기기 록하트, 정말 나오는 건가? 1 2020.05.06 108
1507 BTS가 뜨면 유통·물류 판도 움직인다 1 2020.05.06 153
1506 이재용 삼성 '4세 경영' 포기..82년 '무노조 경영' 종식 ... 1 2020.05.06 70
1505 톰 크루즈, 사상 최초로 우주정거장에서 영화 찍는다 1 2020.05.06 109
1504 [PUBG] 콘솔 패치노트 7.1 요약 1 2020.04.24 108
1503 [로스트아크] 4월 22일(수) 업데이트 내역 안내 1 2020.04.24 306
1502 [넥슨 V4] 어쌔신 인게임 플레이 영상 1 2020.04.24 86
1501 [음악감상] 펭수 - 펭수로 하겠습니다(펭수&타이거JK&비지... 1 2020.04.23 339
1500 코로나19 치료제·백신 개발 지원 정부 힘 모은다 1 2020.04.16 169
1499 '개표율 100%' 민주·더시민 180석..통합·미래한국 103석 확정 1 2020.04.16 69
1498 의료진 '피와 땀' 잊었나..수당 지급 '차일피일' 1 2020.04.08 108
1497 C&C 리마스터 컬렉션 공식 트레일러 1 2020.03.11 137
1496 [로스트아크] 3월 11일(수) 업데이트 내역 안내 1 2020.03.11 247
1495 [PUBG] 테스트 서버 - PC 1.0 버전 패치노트 #6.3 1 2020.03.11 100
1494 2월 29일 - 3월 13일, PC에서 오버워치를 무료로 체험하세요! 1 2020.02.29 81
1493 日 코로나19 검사 '하루 900건'..병원단체, '사태 악화' 경고 1 2020.02.28 95
1492 대륙으로 번진 '신천지 논란'..중국 정부, 신도 추적 1 2020.02.28 98
1491 코로나19에 올림픽 취소 위기감..아베 "전국 초중고 휴교"... 1 2020.02.28 84
1490 BTS Performs "ON" at Grand Central Terminal for The To... 1 2020.02.26 165
1489 비틀즈 이후 세계 최대 아티스트 BTS, 미국 NBC 투데이쇼 ... 1 2020.02.24 100
1488 [음악감상] BTS (방탄소년단) - Tomorrow 1 2020.02.24 300
1487 BTS 컴백에 맞춰 미국 팬들 노숙 시작 1 2020.02.21 149
1486 글로벌 문화대통령 BTS (방탄소년단) 'ON' Kinetic Manife... 3 2020.02.21 189
1485 CNN·BBC "韓 '대구 아웃브레이크'..세계확산 둔화 희망 무... 5 2020.02.21 148
1484 또 대구,, 전주서 28세 남성 코로나19 확진 1 2020.02.20 117
1483 군대 첫 확진자 발생..대구 휴가 다녀온 '제주 근무' 해군... 2 2020.02.20 90
1482 [속보] 코로나19 확진자 104명..청도대남병원서 국내 첫 ... 4 2020.02.20 81
1481 코로나19 환자 총 82명..대구·경북 30명·서울 1명 추가 확진 2 2020.02.20 53
1480 31번 접촉 15명 확진.. 대구·경북'슈퍼전파' 1 2020.02.20 118
1479 정부 "대구 봉쇄? 검토한 바 없다.. 상황 엄중함은 인식" 4 2020.02.19 188
1478 '코로나19' 집단발병지 된 대구..감염원 '미스터리' 1 2020.02.19 98
1477 글로벌 문화대통령 BTS(방탄소년단), 21일부터 본격 컴백 1 2020.02.17 116
1476 [PUBG] 테스트 서버 - PC 1.0 버전 패치노트 #6.2 1 2020.02.17 127
1475 [로스크아크] 밸런스 패치 등 2월 12일(수) 업데이트 내역... 1 2020.02.17 97
1474 세계 최대 게임 리그, 오버워치 리그 2020 시즌 본격 개막 1 2020.02.17 124
1473 공정위, 네이버 창업자 이해진 검찰 고발 1 2020.02.17 120
1472 [TF초점] '핫'했던 지난해 게임업계..빅5 성적표는? 1 2020.02.17 61
1471 '코로나 부실 대응'..시진핑·아베 리더십 위기 1 2020.02.17 68
1470 아베 정권 지지율 급락·41%에 그쳐..지지보다 반대가 많아 1 2020.02.17 106
1469 엄청 비싼 서울 집, 누가 와서 샀나요..최근 4년 구매자 보니 1 2020.02.17 111
1468 목표 꿈의 직장 1위는 '공기업', 사기업은 삼성을 밀어내... 2 2020.02.17 92
1467 '이재용 프로포폴 의혹' 강력부 배당..삼성, 강력 부인 1 2020.02.13 196
1466 세계 최고 모바일RPG "넥슨 V4", 신규 서버 및 신규 직업 ... 2 2020.02.12 358
1465 봉준호·BTS···'韓 소프트파워' 세계를 홀렸다 1 2020.02.12 160
1464 非영어 첫 '오스카 작품상'…봉준호 역사를 쓰다 1 2020.02.12 78
1463 블리자드 내부에서는 만족, 디아블로 이모탈 올해 테스트 1 2020.02.09 69
1462 황혼기 맞은 PS4와 Xbox One, 스위치 홀로 전성기 1 2020.02.09 114
1461 추락하는 변호사 몸값..이젠 6급도 아닌 7급 대우 2 2020.02.08 61
1460 BTS (방탄소년단) 'Black Swan' Dance Practice 1 2020.02.08 188
1459 저스틴 비버 제친 방탄소년단, 소셜50→빌보드200 차트서도... 1 2020.02.08 89
1458 [V4] 신규 캐릭 아처 및 신서버 오픈 1 2020.02.03 231
1457 '엎친 데 덮친 격' 중국서 치사율 높은 조류인플루엔자도 ... 2 2020.02.02 98
1456 교민 포용한 아산·진천 주민들...'응원메시지' 봇물 1 2020.02.01 323
Board Pagination Prev 1 2 3 4 5 6 7 8 9 10 ... 18 Next
/ 18